Omaha Offutt, NE

12:12 AM CDT on April 22, 2018 (GMT -0500)
Offutt Air Force Base

Weather History for KOFF - December, 2012

Change the Weather History Date:

Friday, December 14, 2012

  Actual Average Record
Temperature  
Mean Temperature 35 °F -  
Max Temperature 54 °F 36 °F 84 °F (2003)
Min Temperature 16 °F 18 °F 0 °F (2000)
Degree Days  
Heating Degree Days 30    
Moisture  
Dew Point 30 °F    
Average Humidity 67    
Maximum Humidity 93    
Minimum Humidity 44    
Precipitation  
Precipitation 0.01 in - - ()
Sea Level Pressure  
Sea Level Pressure 29.85 in    
Wind  
Wind Speed 7 mph (SE)    
Max Wind Speed 22 mph    
Max Gust Speed 29 mph    
Visibility 10 miles    
Events Rain    
Averages and records for this station are not official NWS values.
T = Trace of Precipitation, MM = Missing Value Source: NWS Daily Summary

Daily Weather History Graph

Daily Weather History Graph

Search for Another Location

Airport or City:

Astronomy

Dec. 14, 2012 Rise Set
Actual Time 7:41 AM CST 4:55 PM CST
Civil Twilight 7:10 AM CST 5:26 PM CST
Nautical Twilight 6:35 AM CST 6:01 PM CST
Astronomical Twilight 6:02 AM CST 6:35 PM CST
Moon 8:46 AM CST (12/14) 6:50 PM CST (12/14)
Length of Visible Light 10h 16m
Length of Day
9h 14m
Waxing Crescent, 3% of the Moon is Illuminated
Dec 14
Waxing Crescent
Dec 19
First Quarter
Dec 28
Full
Jan 4
Last Quarter
Jan 11
New

Hourly Weather History & Observations

Time (CST) Temp. Windchill Dew Point Humidity Pressure Visibility Wind Dir Wind Speed Gust Speed Precip Events Conditions
12:55 AM 20.1 °F - 16.5 °F 86% 30.07 in 10.0 mi Calm Calm - N/A   Clear
1:55 AM 19.0 °F - 14.5 °F 83% 30.06 in 10.0 mi Calm Calm - N/A   Clear
2:55 AM 19.0 °F - 16.5 °F 90% 30.05 in 10.0 mi Calm Calm - N/A   Clear
3:55 AM 17.2 °F - 14.5 °F 89% 30.04 in 10.0 mi Calm Calm - N/A   Clear
4:55 AM 17.1 °F - 15.3 °F 93% 30.04 in 10.0 mi Calm Calm - N/A   Clear
5:55 AM 18.3 °F - 16.0 °F 91% 30.03 in 10.0 mi Calm Calm - N/A   Clear
6:55 AM 17.2 °F - 14.2 °F 88% 30.03 in 10.0 mi Calm Calm - N/A   Clear
7:55 AM 16.9 °F - 14.4 °F 90% 30.02 in 10.0 mi Calm Calm - N/A   Clear
8:55 AM 27.7 °F - 22.6 °F 81% 30.01 in 10.0 mi Calm Calm - N/A   Clear
9:55 AM 38.1 °F 32.3 °F 27.9 °F 67% 29.98 in 10.0 mi SSE 8.1 mph - N/A   Clear
10:55 AM 43.3 °F 39.9 °F 27.5 °F 54% 29.97 in 10.0 mi SE 5.8 mph - N/A   Clear
11:55 AM 49.6 °F - 30.0 °F 47% 29.92 in 10.0 mi SSE 11.5 mph - N/A   Clear
12:55 PM 53.4 °F - 32.0 °F 44% 29.88 in 10.0 mi SSE 11.5 mph - N/A   Clear
1:55 PM 52.9 °F - 32.4 °F 46% 29.84 in 10.0 mi SE 13.8 mph - N/A   Clear
2:55 PM 54.1 °F - 34.9 °F 48% 29.81 in 10.0 mi SE 17.3 mph - N/A   Partly Cloudy
3:55 PM 53.6 °F - 36.1 °F 52% 29.80 in 10.0 mi SE 13.8 mph - N/A   Partly Cloudy
4:55 PM 52.7 °F - 34.5 °F 50% 29.79 in 10.0 mi SE 21.9 mph 27.6 mph N/A   Overcast
5:55 PM 50.5 °F - 32.9 °F 51% 29.80 in 10.0 mi SE 17.3 mph - N/A   Overcast
6:55 PM 50.2 °F - 32.9 °F 52% 29.78 in 10.0 mi SE 16.1 mph - N/A   Overcast
7:53 PM 50.0 °F - 33.8 °F 54% 29.77 in 10.0 mi SE 16.1 mph - N/A   Overcast
7:55 PM 50.0 °F - 33.6 °F 53% 29.77 in 10.0 mi SSE 16.1 mph - N/A   Overcast
8:02 PM 50.0 °F - 33.8 °F 54% 29.77 in 10.0 mi SE 16.1 mph - N/A   Overcast
8:03 PM 50.0 °F - 33.8 °F 54% 29.77 in 10.0 mi SE 16.1 mph - N/A   Overcast
8:45 PM 50.0 °F - 37.4 °F 62% 29.75 in 10.0 mi SE 15.0 mph - N/A Rain Light Rain
8:55 PM 49.6 °F - 37.4 °F 63% 29.73 in 10.0 mi SE 13.8 mph - 0.00 in Rain Light Rain
8:57 PM 50.0 °F - 37.4 °F 62% 29.73 in 10.0 mi ESE 13.8 mph - N/A   Overcast
9:24 PM 48.2 °F - 39.2 °F 71% 29.71 in 10.0 mi SE 16.1 mph 23.0 mph N/A Rain Light Rain
9:33 PM 48.2 °F - 39.2 °F 71% 29.70 in 10.0 mi SE 12.7 mph - N/A   Overcast
9:55 PM 48.2 °F - 39.4 °F 72% 29.69 in 10.0 mi ESE 13.8 mph - 0.00 in   Overcast
10:55 PM 48.6 °F - 40.1 °F 73% 29.64 in 10.0 mi ESE 15.0 mph - N/A   Overcast
11:37 PM 48.2 °F - 39.2 °F 71% 29.60 in 10.0 mi ESE 13.8 mph - N/A Rain Light Rain
11:55 PM 45.7 °F 38.0 °F 41.4 °F 85% 29.61 in 7.0 mi ESE 19.6 mph 28.8 mph 0.01 in Rain Light Rain